CAPE
0 0 0 0 0 0 0 0 0 0 0 0 0 0 0 0 0 0 0 0 0 0 47 0 31 12 277 501 532 363 166 179 341 495 713 800 399 512 368 134 293 352 289 305 395
1 0 0 0 0 0 0 0 0 0 0 0 0 0 0 0 0 0 0 0 0 0 0 27 83 302 348 139 67 203 239 245 197 146 461 855 533 641 343 312 374 439 482 408 374
1 0 0 0 0 0 0 0 0 0 0 0 0 0 0 0 0 0 0 0 0 0 0 2 271 188 0 1 56 102 159 124 103 168 473 970 914 758 422 353 466 479 327 349 263
2 0 0 0 0 0 0 0 0 0 0 0 0 0 0 0 0 0 0 0 0 0 1 111 109 74 26 53 219 184 145 131 117 226 371 922 1060 816 556 754 563 545 493 416 163
1 0 0 0 0 0 0 0 0 0 0 0 0 0 0 0 0 0 0 0 0 0 215 341 40 71 140 214 291 158 172 167 158 136 295 1053 977 961 661 660 628 580 586 435 346
1 0 0 0 0 0 0 0 0 0 0 0 0 0 0 0 0 0 0 0 0 0 108 432 185 105 369 425 382 418 202 189 167 243 701 691 770 853 780 746 607 515 481 561 310
0 0 0 0 0 0 0 0 0 0 0 0 0 0 0 0 0 0 0 0 0 0 195 406 81 257 532 533 425 309 201 208 210 164 172 486 467 422 754 906 612 544 571 666 629
0 0 0 0 0 0 0 0 0 0 0 0 0 0 0 0 0 0 0 0 0 0 0 39 84 339 665 425 266 170 140 236 157 214 221 265 390 297 823 947 746 586 622 478 726
0 0 0 0 0 0 0 0 0 0 0 0 0 0 0 0 0 0 0 0 0 0 0 0 43 292 590 488 338 188 172 188 197 146 278 303 454 404 799 907 937 722 786 743 727
0 0 0 0 0 0 0 0 0 0 0 0 0 0 0 0 0 0 0 0 0 0 0 0 53 321 255 514 319 193 173 205 233 256 177 272 331 368 692 858 937 874 892 833 824
0 0 0 0 0 0 0 0 0 0 0 0 0 0 0 0 0 0 0 0 0 0 4 0 41 237 253 158 130 80 149 225 324 412 310 238 333 367 689 836 867 899 899 837 824
0 0 0 0 0 0 0 0 0 0 0 0 0 0 0 0 0 0 0 0 0 0 0 9 116 2 6 0 0 0 97 391 428 393 380 464 402 97 228 665 883 936 801 755 789
0 0 0 0 0 0 0 0 0 0 0 0 0 0 0 0 0 0 0 0 0 0 0 167 52 0 0 1 2 0 0 10 1 127 299 173 161 29 1 95 455 933 998 889 762
0 0 0 0 0 0 0 0 0 0 0 0 0 0 0 0 0 0 0 0 0 0 0 26 0 0 0 10 0 0 0 0 0 26 352 78 83 94 4 146 392 874 1057 1046 1009
0 0 0 0 0 0 0 0 0 0 0 0 0 0 0 0 0 0 0 0 0 0 0 83 0 0 35 5 0 0 0 0 117 154 254 118 181 188 69 170 120 53 18 5 18
0 0 0 0 0 0 0 0 0 0 0 0 0 0 0 0 0 0 0 0 0 0 0 0 0 0 0 0 0 0 0 41 144 264 184 49 73 169 176 134 67 36 48 22 102
0 0 0 0 0 0 0 0 0 0 0 0 0 0 0 0 0 0 0 0 0 0 0 0 0 0 0 0 0 0 0 25 282 300 152 73 114 100 113 80 77 90 27 0 24
0 0 0 0 0 0 0 0 0 0 0 0 0 0 0 0 0 0 0 0 0 0 0 0 0 0 0 0 0 0 0 9 144 120 4 38 44 29 115 68 52 35 0 0 0
0 0 0 0 0 0 0 0 0 0 0 0 0 0 0 0 0 0 0 0 0 0 0 0 0 0 0 0 0 0 0 0 7 1 55 10 67 101 101 74 25 20 0 0 0
0 0 0 0 0 0 0 0 0 0 0 0 0 0 0 0 0 0 0 0 0 0 0 0 0 0 0 0 0 0 0 0 0 4 24 15 6 11 86 30 55 14 0 0 0
0 0 0 0 0 0 0 0 0 0 0 0 0 0 0 0 0 0 0 0 0 0 0 0 0 0 0 0 0 0 0 0 0 0 6 0 0 70 73 42 54 15 0 0 28
0 0 0 0 0 0 0 0 0 0 0 0 0 0 0 0 0 0 0 0 0 0 0 0 0 0 0 0 0 0 0 0 0 0 0 0 0 0 38 65 60 4 0 417 248
0 0 0 0 0 0 0 0 0 0 0 0 0 0 0 0 0 0 0 0 0 0 0 0 0 0 0 0 0 0 0 0 0 0 0 7 0 0 26 80 3 207 929 1154 1070
0 0 0 0 0 0 0 0 0 0 0 0 0 0 0 0 0 0 0 0 0 0 0 0 0 0 0 0 0 0 0 0 0 0 0 0 0 61 18 34 364 1172 1508 1670 1750
0 0 0 0 0 0 0 0 0 0 0 0 0 0 0 0 0 0 0 0 0 0 0 0 0 0 0 0 0 0 0 0 0 0 0 0 1 0 11 202 1151 1564 1635 1638 1707
0 0 0 0 0 0 0 0 0 0 0 0 0 0 0 0 0 0 0 0 0 0 0 0 0 0 0 0 0 0 0 0 0 0 0 0 0 14 822 1214 1098 1061 1184 1198 1153
0 0 0 0 0 0 0 0 0 0 0 0 0 0 0 0 0 0 0 0 0 0 0 0 0 0 0 0 0 0 0 0 0 0 0 0 33 1059 855 550 388 300 470 636 581
CIN
-0 -0 -0 -0 -0 -0 -0 -0 -0 -0 -0 -0 -0 -0 -0 -0 -0 -0 -0 -0 -0 -0 -375 -0 -89 -85 -262 -224 -236 -263 -43 -26 -28 -26 -33 -65 -70 -92 -99 -156 -147 -144 -176 -198 -188
-0 -0 -0 -0 -0 -0 -0 -0 -0 -0 -0 -0 -0 -0 -0 -0 -0 -0 -0 -0 -0 -0 -0 -88 -153 -166 -127 -188 -211 -147 -42 -33 -61 -59 -41 -55 -58 -66 -84 -100 -130 -157 -194 -202 -181
-0 -0 -0 -0 -0 -0 -0 -0 -0 -0 -0 -0 -0 -0 -0 -0 -0 -0 -0 -0 -0 -0 -0 -51 -161 -154 -0 -60 -173 -109 -46 -81 -59 -59 -53 -48 -65 -72 -83 -84 -89 -123 -237 -221 -217
-0 -0 -0 -0 -0 -0 -0 -0 -0 -0 -0 -0 -0 -0 -0 -0 -0 -0 -0 -0 -0 -0 -24 -179 -176 -117 -116 -106 -135 -70 -101 -103 -66 -76 -64 -44 -67 -80 -92 -62 -104 -181 -213 -228 -263
-0 -0 -0 -0 -0 -0 -0 -0 -0 -0 -0 -0 -0 -0 -0 -0 -0 -0 -0 -0 -0 -0 -131 -132 -135 -130 -75 -105 -130 -98 -107 -97 -91 -76 -74 -67 -69 -71 -114 -160 -191 -231 -203 -194 -199
-0 -0 -0 -0 -0 -0 -0 -0 -0 -0 -0 -0 -0 -0 -0 -0 -0 -0 -0 -0 -0 -0 -148 -132 -135 -167 -105 -90 -73 -94 -90 -71 -66 -67 -77 -63 -80 -96 -158 -228 -234 -247 -218 -185 -176
-0 -0 -0 -0 -0 -0 -0 -0 -0 -0 -0 -0 -0 -0 -0 -0 -0 -0 -0 -0 -0 -0 -145 -159 -204 -135 -120 -60 -111 -104 -52 -43 -66 -83 -71 -77 -69 -65 -174 -251 -229 -258 -221 -169 -149
-0 -0 -0 -0 -0 -0 -0 -0 -0 -0 -0 -0 -0 -0 -0 -0 -0 -0 -0 -0 -0 -0 -0 -252 -242 -154 -99 -129 -91 -82 -78 -28 -69 -71 -95 -74 -15 -92 -220 -216 -224 -260 -254 -255 -198
-0 -0 -0 -0 -0 -0 -0 -0 -0 -0 -0 -0 -0 -0 -0 -0 -0 -0 -0 -0 -0 -0 -0 -0 -251 -150 -111 -65 -28 -70 -41 -44 -47 -97 -83 -75 -29 -103 -209 -212 -191 -229 -237 -237 -216
-0 -0 -0 -0 -0 -0 -0 -0 -0 -0 -0 -0 -0 -0 -0 -0 -0 -0 -0 -0 -0 -0 -0 -0 -232 -78 -101 -57 -19 -48 -47 -41 -39 -59 -93 -58 -50 -103 -195 -218 -199 -222 -217 -225 -200
-0 -0 -0 -0 -0 -0 -0 -0 -0 -0 -0 -0 -0 -0 -0 -0 -0 -0 -0 -0 -0 -0 -324 -0 -196 -58 -88 -136 -125 -163 -97 -59 -52 -68 -74 -57 -53 -60 -154 -236 -232 -223 -203 -190 -194
-0 -0 -0 -0 -0 -0 -0 -0 -0 -0 -0 -0 -0 -0 -0 -0 -0 -0 -0 -0 -0 -0 -0 -67 -161 -59 -258 -0 -0 -0 -103 -32 -49 -87 -75 -47 -34 -106 -153 -202 -226 -202 -243 -224 -219
-0 -0 -0 -0 -0 -0 -0 -0 -0 -0 -0 -0 -0 -0 -0 -0 -0 -0 -0 -0 -0 -0 -0 -160 -177 -0 -0 -109 -149 -0 -0 -101 -102 -148 -129 -88 -39 -146 -117 -248 -249 -241 -252 -264 -250
-0 -0 -0 -0 -0 -0 -0 -0 -0 -0 -0 -0 -0 -0 -0 -0 -0 -0 -0 -0 -0 -0 -0 -360 -0 -0 -0 -289 -0 -0 -0 -0 -0 -169 -23 -249 -74 -90 -226 -104 -140 -180 -213 -212 -264
-0 -0 -0 -0 -0 -0 -0 -0 -0 -0 -0 -0 -0 -0 -0 -0 -0 -0 -0 -0 -0 -0 -0 -158 -0 -0 -290 -190 -0 -0 -0 -9 -172 -121 -69 -144 -126 -81 -196 -76 -121 -232 -386 -457 -392
-0 -0 -0 -0 -0 -0 -0 -0 -0 -0 -0 -0 -0 -0 -0 -0 -0 -0 -0 -0 -0 -0 -0 -0 -0 -0 -0 -0 -0 -0 -0 -266 -198 -113 -95 -233 -176 -116 -131 -154 -199 -242 -282 -363 -300
-0 -0 -0 -0 -0 -0 -0 -0 -0 -0 -0 -0 -0 -0 -0 -0 -0 -0 -0 -0 -0 -0 -0 -0 -0 -0 -0 -0 -0 -0 -0 -68 -73 -71 -110 -267 -206 -144 -166 -273 -279 -281 -288 -0 -380
-0 -0 -0 -0 -0 -0 -0 -0 -0 -0 -0 -0 -0 -0 -0 -0 -0 -0 -0 -0 -0 -0 -0 -0 -0 -0 -0 -0 -15 -0 -0 -71 -122 -126 -232 -288 -214 -196 -230 -293 -322 -407 -0 -0 -0
-0 -0 -0 -0 -0 -0 -0 -0 -0 -0 -0 -0 -0 -0 -0 -0 -0 -0 -0 -0 -0 -0 -0 -0 -0 -0 -0 -0 -0 -0 -0 -0 -239 -43 -190 -257 -195 -185 -264 -280 -345 -355 -0 -0 -0
-0 -0 -0 -0 -0 -0 -0 -0 -0 -0 -0 -0 -0 -0 -0 -0 -0 -0 -0 -0 -0 -0 -0 -0 -0 -0 -0 -0 -0 -0 -0 -0 -0 -123 -189 -227 -199 -79 -187 -254 -284 -367 -0 -0 -0
-0 -0 -0 -0 -0 -0 -0 -0 -0 -0 -0 -0 -0 -0 -0 -0 -0 -0 -0 -0 -0 -0 -0 -0 -0 -0 -0 -0 -0 -0 -0 -0 -0 -0 -197 -0 -0 -174 -178 -274 -267 -348 -0 -0 -383
-0 -0 -0 -0 -0 -0 -0 -0 -0 -0 -0 -0 -0 -0 -0 -0 -0 -0 -0 -0 -0 -0 -0 -0 -0 -0 -0 -0 -0 -0 -0 -0 -0 -0 -2 -0 -48 -0 -269 -286 -348 -438 -0 -256 -291
-0 -0 -0 -0 -0 -0 -0 -0 -0 -0 -0 -0 -0 -0 -0 -0 -0 -0 -0 -0 -0 -0 -0 -0 -0 -0 -0 -0 -0 -0 -0 -0 -0 -0 -0 -73 -0 -0 -343 -296 -349 -260 -203 -222 -258
-0 -0 -0 -0 -0 -0 -0 -0 -0 -0 -0 -0 -0 -0 -0 -0 -0 -0 -0 -0 -0 -0 -0 -0 -0 -0 -0 -0 -0 -0 -0 -0 -0 -0 -0 -57 -0 -121 -263 -283 -224 -189 -193 -223 -259
-0 -0 -0 -0 -0 -0 -0 -0 -0 -0 -0 -0 -0 -0 -0 -0 -0 -0 -0 -0 -0 -0 -0 -0 -0 -0 -0 -0 -0 -0 -0 -0 -0 -0 -0 -0 -25 -0 -292 -238 -216 -217 -224 -228 -255
-0 -0 -0 -0 -0 -0 -0 -0 -0 -0 -0 -0 -0 -0 -0 -0 -0 -0 -0 -0 -0 -0 -0 -0 -0 -0 -0 -0 -0 -0 -0 -0 -0 -0 -0 -0 -0 -400 -380 -314 -278 -283 -274 -275 -340
-0 -0 -0 -0 -0 -0 -0 -0 -0 -0 -0 -0 -0 -0 -0 -0 -0 -0 -0 -0 -0 -0 -0 -0 -0 -0 -0 -0 -0 -0 -0 -0 -0 -0 -0 -0 -88 -317 -346 -390 -431 -457 -432 -404 -440
Wind_Speed
15 15 15 14 13 14 14 14 14 14 13 13 13 13 14 15 15 17 18 18 19 24 8 15 14 13 14 11 9 9 7 7 11 7 18 20 20 9 12 23 18 16 21 25 28
17 16 16 16 15 15 15 15 15 15 15 15 14 14 14 14 15 18 17 18 16 25 20 17 15 15 11 12 13 12 7 13 13 12 15 21 20 17 16 22 16 12 21 26 28
18 17 17 17 17 16 16 17 17 16 16 16 15 14 14 14 19 18 15 22 18 21 17 17 16 13 11 11 13 13 12 14 12 14 20 20 17 14 21 17 18 21 25 26 27
19 18 18 18 18 18 17 18 18 18 17 17 17 15 15 18 23 17 17 20 17 17 14 18 15 13 9 7 11 8 15 16 13 13 22 20 5 11 20 11 17 24 26 26 26
20 19 19 19 19 19 19 18 19 19 18 18 17 16 18 21 20 16 19 19 18 19 16 16 20 20 16 14 13 11 12 15 15 11 13 15 10 8 19 9 27 27 28 27 27
21 20 20 20 20 20 20 20 20 20 19 19 18 17 20 25 18 19 22 21 20 19 18 16 17 20 20 16 10 14 13 14 7 6 9 4 10 16 22 25 27 27 28 27 27
22 22 21 21 21 21 21 22 21 21 21 20 19 19 22 24 17 19 22 21 21 19 19 18 16 16 17 18 13 14 14 11 8 11 9 16 9 15 22 24 26 26 25 25 25
23 23 22 22 22 22 23 23 22 22 21 20 19 20 25 21 21 21 23 21 20 21 18 17 16 17 15 16 14 16 18 16 12 11 11 15 12 13 21 21 21 22 22 24 24
24 24 24 23 23 24 24 24 22 19 17 18 18 20 25 21 24 23 24 22 21 19 19 14 15 17 16 19 17 10 20 17 16 13 13 18 14 13 18 18 18 20 20 20 21
25 25 25 25 25 25 24 22 18 17 16 17 18 17 23 24 22 23 23 22 20 20 19 19 18 18 16 18 21 17 17 15 17 13 15 18 16 15 14 16 17 18 17 18 19
26 26 26 26 26 25 20 14 16 17 18 18 16 17 18 21 22 24 23 23 21 22 24 20 22 22 22 19 18 16 18 17 17 16 15 16 15 15 13 15 18 18 18 17 16
27 27 27 27 27 21 17 14 13 16 20 23 25 24 21 20 20 21 22 24 23 10 16 14 21 22 22 19 17 15 15 16 11 12 15 11 17 17 15 12 17 19 17 18 16
27 27 28 28 24 16 14 9 15 15 19 20 19 20 20 14 18 18 22 15 16 14 9 22 6 11 14 8 16 16 13 13 14 13 16 11 14 15 17 7 15 18 17 15 14
27 27 27 28 17 18 13 13 21 13 19 19 19 19 16 15 18 19 18 12 14 5 9 17 13 21 12 11 10 14 12 17 16 16 16 6 16 15 17 18 18 15 13 11 11
28 28 27 22 20 16 14 20 14 13 20 15 16 16 16 16 11 15 19 17 11 10 11 9 12 11 6 7 11 12 19 19 17 12 17 18 16 15 16 16 18 18 13 10 8
29 28 26 18 19 17 18 17 13 18 24 16 13 16 14 19 16 14 14 16 14 13 16 14 17 13 11 14 15 18 14 15 14 14 18 19 18 17 15 15 16 19 20 20 19
30 29 24 20 17 16 18 12 17 23 18 17 16 15 18 19 17 15 15 14 14 15 14 16 17 16 17 19 14 13 14 15 13 16 20 18 18 18 13 14 16 20 21 21 21
31 29 20 19 16 16 14 17 23 21 20 16 16 14 18 16 20 18 16 17 19 16 15 15 17 20 15 14 11 11 12 14 15 16 18 16 19 20 12 12 15 15 18 20 20
29 20 20 19 19 18 18 24 25 20 19 19 16 17 19 19 18 19 19 18 17 15 18 16 22 18 18 16 12 11 13 13 15 17 19 19 21 23 11 11 12 15 17 20 20
23 21 19 18 11 15 23 27 25 20 19 18 22 20 20 19 19 19 17 19 19 17 16 16 18 18 16 13 16 14 8 15 16 18 20 19 24 24 17 13 11 15 18 22 23
20 20 19 15 12 19 27 27 24 22 19 19 19 20 21 20 20 20 21 21 21 16 17 13 17 15 14 15 12 13 15 15 15 17 19 21 21 18 17 18 10 16 19 23 24
19 21 17 12 18 23 28 25 23 23 21 20 19 20 19 19 20 22 20 19 13 14 18 18 19 19 15 14 16 17 14 12 17 18 18 20 21 19 18 16 15 17 19 22 20
20 20 15 19 24 25 24 26 24 24 23 22 21 20 18 19 21 21 20 19 12 11 13 14 20 19 21 20 17 18 15 14 15 17 17 19 19 18 17 15 15 16 18 19 16
19 21 19 21 22 24 23 24 28 23 26 25 24 21 21 22 19 19 21 18 14 14 13 10 19 20 20 20 17 17 15 15 15 18 17 18 20 17 17 13 13 15 16 15 15
19 22 20 25 27 24 23 22 24 27 24 23 27 29 24 25 22 21 18 16 14 18 15 14 21 20 20 18 15 16 15 12 12 15 15 17 13 18 12 11 11 14 14 14 14
22 22 21 22 23 23 24 26 23 25 25 28 29 23 27 29 23 20 16 16 17 14 14 16 19 17 21 19 16 17 16 14 15 16 16 15 13 13 9 9 11 13 13 14 13
19 19 21 22 22 25 27 25 24 22 26 29 26 29 29 32 30 28 26 24 20 16 14 14 14 14 20 15 15 22 17 13 12 13 14 15 13 4 6 9 11 13 13 13 12
Wind_Direction
297 294 294 283 273 270 268 263 260 257 252 246 241 239 248 258 243 213 194 191 175 132 234 205 210 218 203 232 269 256 309 338 203 249 38 70 131 223 182 92 162 176 142 128 123
298 292 291 287 277 270 270 267 263 258 254 250 242 238 245 252 216 206 211 202 193 124 178 199 215 203 236 227 202 207 254 193 191 198 149 99 139 155 146 130 172 207 85 113 125
297 294 288 285 280 272 268 268 265 259 256 251 244 238 243 219 170 182 222 191 197 173 185 189 195 208 209 241 222 206 210 197 200 188 85 75 37 175 129 149 150 130 115 120 128
297 292 289 282 280 274 267 266 265 260 257 251 246 243 235 187 147 191 209 200 202 193 193 175 196 205 226 248 222 264 197 187 207 191 97 79 279 175 132 173 160 126 123 124 131
298 293 288 282 277 274 268 264 264 259 254 248 243 244 201 176 171 199 191 199 198 182 183 183 161 158 173 188 208 230 243 199 192 226 108 43 209 213 134 183 97 110 126 131 137
297 293 288 282 276 274 268 264 261 258 253 245 237 236 203 163 202 191 186 188 189 181 176 180 178 160 143 170 230 197 219 197 273 299 14 22 209 155 100 85 90 108 126 133 141
296 293 289 283 277 273 269 264 259 255 250 242 237 228 206 189 218 206 195 194 190 191 177 172 181 188 178 166 199 194 206 233 268 226 257 59 228 176 96 96 96 108 119 130 141
298 293 290 285 279 272 268 264 258 251 248 242 243 228 205 223 222 207 197 202 202 191 196 199 199 176 186 195 188 181 178 187 228 261 245 209 214 205 102 103 107 112 117 132 141
301 296 292 287 281 275 268 264 257 260 259 254 248 238 215 229 216 211 200 205 205 213 204 220 210 181 177 181 184 219 158 185 191 242 254 185 218 211 107 116 120 132 123 132 145
301 298 293 289 284 278 270 264 266 266 269 260 255 255 224 224 225 225 217 207 209 212 204 197 192 179 182 178 157 175 189 204 177 238 212 175 190 196 125 139 140 141 132 137 143
302 298 297 292 287 281 282 292 278 272 263 259 263 261 248 237 232 223 224 218 221 211 159 205 170 149 164 172 174 178 169 181 148 218 200 186 202 202 125 144 159 156 155 153 148
300 298 299 296 290 288 288 287 289 276 267 257 252 251 251 247 244 237 231 226 228 152 247 214 168 174 169 183 197 208 205 180 167 163 126 208 240 266 65 141 172 166 162 166 157
300 298 297 295 291 299 293 304 300 288 274 266 262 261 257 263 256 247 234 251 259 261 276 170 332 276 246 318 240 213 240 232 228 211 55 218 169 289 9 250 141 162 165 162 167
299 298 298 293 294 291 289 295 290 294 275 268 261 261 258 261 260 250 243 256 269 253 280 262 277 253 295 323 358 281 37 255 229 251 276 235 358 16 340 349 17 99 135 147 155
298 298 297 297 286 283 286 285 292 292 269 276 261 269 254 250 268 253 245 255 260 268 271 279 276 279 315 331 320 325 298 295 294 17 322 332 307 18 18 18 5 27 71 116 137
294 295 295 293 286 280 282 284 281 270 265 275 270 256 243 248 259 253 250 259 264 267 271 277 268 285 290 289 294 291 335 339 342 343 314 317 320 331 12 18 18 355 334 320 338
290 288 286 287 278 282 282 272 266 261 278 269 268 258 247 244 250 254 240 242 250 253 257 271 270 276 276 277 295 306 322 325 331 324 313 327 328 327 26 25 22 332 330 315 328
286 282 285 279 282 278 269 261 262 269 266 278 271 261 250 244 247 252 242 241 255 259 265 257 268 262 272 274 292 302 318 316 318 323 324 336 322 335 23 28 16 19 13 320 332
285 289 282 280 269 266 253 253 260 267 266 267 265 257 254 248 252 250 252 245 247 250 263 262 266 282 266 273 274 289 298 320 317 321 318 323 327 327 355 2 14 7 2 360 350
286 282 278 283 272 255 251 254 261 268 271 268 257 259 251 244 248 245 247 258 252 249 257 273 276 271 275 270 277 280 308 304 310 310 309 322 320 321 340 357 8 1 351 339 319
283 273 282 278 264 253 249 255 260 263 269 264 263 260 256 250 247 248 258 262 253 241 251 263 277 278 269 265 260 275 282 299 311 310 310 313 323 352 349 346 4 352 349 337 322
280 266 282 261 254 257 252 255 259 259 262 267 266 263 259 256 250 251 256 260 264 236 242 255 274 272 274 282 283 280 279 278 291 298 307 312 317 346 346 355 352 346 349 343 331
274 272 272 266 254 254 262 254 258 255 256 259 260 262 263 259 257 256 263 266 275 238 239 241 268 273 274 280 286 278 279 285 295 301 298 305 318 344 352 355 359 4 4 355 342
273 265 265 262 264 258 254 256 252 259 256 257 259 262 259 260 266 261 262 267 256 263 263 232 264 267 272 284 278 277 273 272 278 290 295 299 309 327 344 354 2 16 11 350 350
273 267 266 255 253 258 256 261 253 253 258 257 255 253 255 257 261 261 263 270 272 267 265 255 264 265 273 287 291 282 279 271 269 286 291 307 299 322 350 1 16 29 10 348 347
268 268 266 264 254 252 255 254 256 254 256 253 251 257 252 252 256 259 263 270 274 274 269 263 269 264 272 278 284 286 293 285 281 292 297 310 307 318 351 13 19 13 4 348 343
280 276 267 261 257 250 253 255 257 260 260 256 256 253 254 252 255 260 267 270 275 282 269 256 264 265 274 283 282 282 284 287 291 296 299 299 308 326 346 341 1 16 7 356 347